SCP
0 0 0 0 0 -0 0 0 0 0 0 0 0 0 -0 -0 0 0 0 0 0 0 0 0 0 0 0 0 0 0 0 0 0 0 0 0 0 0 0 0 0 0 0
0 0 0 0 0 0 0 0 0 0 0 0 0 -0 0 0 0 0 0 0 0 0 0 0 0 0 0 0 0 0 0 0 0 0 0 0 0 0 0 0 0 0 0
0 0 0 0 0 0 0 0 0 0 0 0 0 0 0 0 0 0 0 0 0 0 0 0 0 0 0 0 0 0 0 0 0 0 0 0 0 0 0 0 0 0 0
0 0 0 0 0 0 0 0 0 0 0 0 0 0 0 0 0 0 0 0 0 0 0 0 0 0 0 0 0 0 0 0 0 0 0 0 0 0 0 0 0 0 0
0 0 0 0 0 -0 0 0 0 0 0 0 0 0 0 0 0 0 0 0 0 0 0 0 0 0 0 0 0 0 0 0 0 0 0 0 0 0 0 0 0 0 0
-0 0 0 0 0 0 0 0 0 0 0 0 0 0 0 0 0 0 0 0 0 0 0 0 0 0 0 0 0 0 0 0 0 0 0 0 0 0 0 0 0 0 0
-0 -0 -0 0 0 0 0 0 0 0 0 0 0 0 0 0 0 0 0 0 0 0 0 0 0 0 0 0 0 0 0 0 0 0 0 0 0 0 0 0 0 0 0
-0 -0 -0 0 0 0 0 0 0 0 0 0 0 0 0 0 0 0 0 0 0 0 0 0 0 0 0 0 0 0 0 0 0 0 0 0 0 0 0 0 0 0 0
-0 -0 -0 -0 0 0 0 0 0 0 0 0 0 0 0 0 0 0 0 0 0 0 0 0 0 0 0 0 0 0 0 0 0 0 0 0 0 0 0 0 0 0 0
-0 -0 -0 -0 0 0 0 0 0 0 0 0 0 0 0 0 0 0 0 0 0 0 0 0 0 0 0 0 0 0 0 0 0 0 0 0 0 0 0 0 0 0 0
0 0 0 0 0 0 0 0 0 0 0 0 0 0 0 0 0 0 0 0 0 0 0 0 0 0 0 0 0 0 -0 -0 0 0 0 0 0 0 0 0 0 0 0
0 0 0 0 0 0 0 0 0 0 0 -0 -0 0 0 0 0 0 -0 -0 -0 -0 -0 0 -0 0 0 -0 0 0 0 0 0 0 0 0 0 0 0 0 0 0 0
0 0 0 0 0 0 0 0 0 0 0 -0 -0 -0 0 0 0 -0 -0 -0 -0 -0 -0 -0 -0 -0 0 0 0 0 0 0 0 0 0 0 0 0 0 0 0 0 0
0 0 0 0 0 0 0 0 0 0 0 0 -0 -0 -0 0 -0 -0 -0 -0 -0 -0 0 0 0 0 0 0 0 0 0 0 0 0 0 0 0 0 0 -0 -0 -0 -0
0 0 0 0 0 0 0 0 0 0 0 0 -0 -0 -0 -0 -0 -0 -0 -0 -0 -0 0 0 -0 0 0 0 0 0 0 0 0 0 0 0 0 0 0 -0 -0 -0 -0
0 0 0 0 0 0 0 0 0 0 0 0 -0 -0 -0 -0 -0 -0 -0 -0 -0 -0 -0 -0 -0 -0 0 -0 -0 0 0 0 0 0 -0 -0 0 0 0 0 0 0 0
0 0 0 0 0 0 0 0 0 0 0 0 -0 -0 -0 -0 -0 -0 -0 -0 -0 -0 -0 -0 0 0 0 -0 0 0 0 0 0 0 0 0 0 0 0 0 0 0 0
0 0 0 0 0 0 0 0 0 0 0 -0 -0 -0 -0 -0 -0 -0 -0 -0 0 -0 0 0 0 0 0 0 0 0 0 0 0 0 0 0 0 0 0 0 0 0 0
0 0 0 0 0 0 0 0 0 0 0 0 0 0 0 -0 -0 -0 -0 0 -0 0 0 0 0 0 0 0 0 0 0 0 0 0 0 0 0 0 0 0 0 0 0
0 0 0 0 0 0 -0 0 0 0 0 0 0 0 0 0 0 0 -0 0 0 0 0 0 0 0 0 0 0 0 0 0 0 0 0 0 0 0 0 0 0 0 0
0 0 0 0 0 0 0 0 0 0 0 0 0 0 0 0 0 0 0 0 0 0 0 0 0 0 0 0 0 0 0 0 0 0 0 0 0 0 0 0 0 0 0
0 0 0 0 0 0 0 0 0 0 0 0 0 0 0 0 0 0 0 0 0 0 0 0 0 0 0 0 0 0 0 0 0 0 0 0 0 0 0 0 0 0 0
-0 0 0 0 0 0 0 0 0 0 0 0 0 0 0 0 0 0 0 0 0 0 0 0 0 0 0 0 0 0 0 0 0 0 0 0 0 0 0 0 0 0 0
-0 0 0 0 0 0 0 0 0 0 0 0 0 0 0 0 0 0 0 0 0 0 0 0 0 0 0 0 0 0 0 0 0 0 0 0 0 0 0 0 0 0 0
0 0 0 0 0 0 0 0 0 0 0 0 0 0 0 0 0 0 0 0 0 0 0 0 0 0 0 0 0 0 0 0 0 0 0 0 0 0 0 0 0 0 0
0 0 0 0 0 0 0 0 0 0 0 0 0 0 0 0 0 0 0 0 0 0 0 0 0 0 0 0 0 0 0 0 0 0 0 0 0 0 0 0 0 0 0
Wind_Speed_500mb
56 46 32 36 30 33 36 36 31 21 26 31 31 20 20 32 21 32 41 62 86 76 56 49 48 48 42 49 52 52 46 51 39 36 33 33 34 39 43 45 46 44 45
60 48 42 29 26 30 32 33 30 26 28 34 36 26 20 24 26 29 39 45 51 54 53 39 35 34 43 45 48 47 51 53 46 46 40 34 33 35 36 36 40 49 51
67 58 44 36 21 29 31 32 28 31 29 31 38 30 24 22 30 28 48 33 50 50 43 44 44 35 42 44 45 45 49 50 55 43 38 16 19 22 19 22 31 38 42
74 51 39 37 28 27 29 28 34 31 22 32 39 35 24 28 37 37 33 30 53 49 35 31 32 30 31 37 38 39 44 44 42 44 51 46 52 47 34 33 32 38 44
56 24 30 30 28 31 23 27 33 34 27 30 36 36 24 23 23 32 19 38 59 51 47 34 32 24 31 30 34 40 32 36 35 38 41 41 41 49 52 42 37 34 34
74 60 32 28 22 18 14 29 30 22 23 34 38 43 29 22 34 38 48 54 55 57 43 48 44 36 36 38 35 30 33 36 39 41 45 41 36 30 19 14 23 24 25
82 80 62 52 18 6 11 14 12 13 21 32 37 39 39 29 30 40 48 51 53 45 50 55 46 41 41 40 39 35 37 36 37 28 24 18 11 3 10 13 15 11 16
90 84 59 50 38 18 11 14 18 33 47 55 53 51 43 41 44 38 45 44 41 39 44 55 53 45 48 52 46 40 35 26 21 11 20 18 21 15 14 13 14 7 12
85 79 61 48 38 30 28 30 38 49 63 65 61 62 59 57 55 46 37 39 53 58 51 40 44 49 38 39 41 42 46 41 39 37 31 27 25 21 21 22 22 24 14
80 76 56 51 41 43 41 45 59 68 80 80 77 74 73 72 66 60 63 61 66 73 67 57 52 56 58 53 50 53 49 46 49 44 38 41 40 34 30 28 27 26 25
68 61 56 46 42 43 49 55 62 81 94 94 92 90 91 90 84 83 81 80 79 81 80 76 71 68 65 62 60 56 53 51 52 49 44 43 37 35 33 32 31 32 33
57 67 54 45 46 58 52 54 69 97 97 95 95 94 96 98 103 100 93 85 84 80 78 78 74 71 68 67 65 63 59 55 53 49 42 43 39 38 39 39 40 40 40
55 64 55 51 57 60 53 51 91 106 107 101 102 103 101 99 103 98 94 89 89 88 86 85 82 78 73 67 64 59 56 53 50 47 47 47 46 46 47 46 47 48 48
59 65 56 59 61 50 45 65 104 103 103 102 102 104 102 99 96 92 93 95 90 85 80 79 79 74 70 64 58 55 53 51 50 49 49 49 50 51 53 56 59 62 63
62 63 63 60 52 47 61 99 105 105 104 105 106 106 100 97 94 91 89 88 86 81 77 74 73 68 65 60 54 51 51 51 51 49 49 51 53 54 58 60 61 62 66
54 52 61 46 46 49 80 101 102 101 98 100 102 97 92 91 89 87 85 83 81 75 71 70 64 63 63 54 51 49 49 48 48 52 55 57 57 59 61 62 63 60 62
48 50 40 40 43 63 84 95 95 91 92 93 91 88 84 84 80 78 75 76 69 64 66 62 58 61 56 48 47 47 49 51 54 55 57 58 61 63 65 64 63 64 62
43 39 42 47 59 72 81 83 83 83 84 87 85 80 77 77 73 69 69 64 59 60 57 56 56 53 51 47 46 48 48 51 55 58 60 61 61 62 64 66 66 66 64
33 35 44 53 62 71 74 77 77 77 77 79 75 72 67 65 61 60 57 55 54 53 50 51 46 45 48 45 44 44 49 50 54 57 58 60 62 67 65 72 72 67 65
31 36 44 53 62 64 64 68 72 70 73 69 65 60 58 57 56 54 51 47 44 45 43 44 45 43 43 40 47 50 49 56 58 59 57 63 70 67 65 71 69 68 65
39 42 45 52 54 54 55 61 62 64 61 58 55 52 50 48 47 46 43 40 36 35 37 37 33 39 43 46 46 51 53 62 57 64 68 64 66 67 63 61 58 52 59
42 44 46 49 48 45 43 52 55 53 48 45 43 42 40 40 39 34 33 31 33 36 29 28 34 37 40 41 45 55 57 56 67 64 64 67 66 63 57 54 55 57 60
35 35 38 42 44 43 42 47 50 44 40 37 37 35 33 32 29 25 29 30 28 24 29 29 31 33 35 40 44 47 54 59 59 64 62 59 56 56 55 54 55 54 54
34 35 35 35 37 36 37 39 40 36 30 29 30 29 25 24 23 25 25 23 23 25 27 27 28 30 34 39 45 51 54 54 55 53 52 53 52 51 52 51 48 50 54
38 37 36 36 36 35 33 33 32 27 21 22 24 24 21 20 20 17 16 17 20 23 27 31 32 33 35 40 44 48 52 56 57 55 55 57 56 54 51 48 49 51 55
41 40 37 33 34 34 31 30 27 23 18 17 18 16 15 16 17 18 19 21 25 29 31 30 32 33 36 39 41 46 49 52 55 56 58 54 51 51 53 54 54 53 59
Wind_Direction_500mb
327 319 309 276 270 283 268 264 267 280 283 258 239 233 284 290 263 238 255 199 214 218 204 209 212 210 220 224 222 229 224 234 231 235 236 242 236 246 257 267 273 275 274
320 306 309 312 291 281 273 267 259 263 267 260 233 229 275 291 235 227 227 232 190 200 212 200 200 221 230 229 226 231 229 235 231 226 241 256 268 274 282 281 279 272 271
311 300 292 293 275 275 272 268 265 260 265 258 233 223 247 278 238 225 229 218 219 207 197 216 206 206 228 238 240 232 236 234 244 251 243 249 248 271 286 275 262 263 261
321 273 272 274 259 272 272 257 258 275 251 248 224 218 223 216 226 224 232 226 231 203 198 200 199 205 232 234 242 249 243 241 248 249 251 254 258 271 282 269 254 262 257
348 305 268 272 268 265 269 286 280 275 231 226 216 209 223 190 206 227 219 222 207 220 210 201 192 209 226 235 239 235 237 237 242 242 253 250 249 260 266 271 254 255 267
358 14 347 314 296 275 309 277 276 270 242 214 198 193 196 183 212 216 208 206 210 210 200 201 199 197 220 218 219 224 230 234 240 245 252 256 258 250 245 269 273 293 287
7 12 21 38 56 99 223 246 233 201 184 187 192 177 165 172 190 197 199 199 196 204 207 211 203 210 223 233 228 228 227 231 224 245 235 229 232 268 277 265 288 300 297
7 15 23 42 52 54 77 153 154 151 133 140 143 136 139 155 167 157 157 160 164 166 167 173 185 211 223 214 219 202 218 216 215 137 110 93 85 62 65 47 9 332 332
7 15 28 42 60 84 93 120 137 127 124 131 124 124 125 128 130 134 134 132 122 116 121 132 128 119 120 113 115 106 107 112 105 100 93 86 78 79 62 46 35 33 6
13 22 33 45 70 85 94 114 115 114 115 117 116 114 115 113 113 116 113 112 114 113 111 106 107 110 108 110 107 104 102 99 90 84 78 67 62 58 55 47 35 24 12
13 30 38 54 74 90 96 97 97 112 111 114 115 116 115 115 119 116 118 119 116 110 106 108 108 102 98 97 94 89 82 78 79 79 73 70 61 52 43 32 22 10 359
28 39 51 70 73 89 96 81 88 106 103 107 110 105 105 106 106 107 108 109 103 100 101 101 98 92 87 87 87 88 85 80 75 70 64 61 52 42 32 22 12 4 355
42 52 59 64 74 79 81 78 97 101 103 105 105 105 103 101 101 101 100 100 99 97 96 96 94 91 88 85 81 79 76 71 65 59 51 43 33 26 17 9 2 356 349
43 54 58 64 71 72 70 83 101 102 105 106 104 103 102 101 101 101 101 101 102 101 99 96 92 86 81 77 74 70 67 63 57 49 42 33 24 17 8 3 359 352 347
49 53 53 69 64 62 78 97 100 102 103 103 104 102 103 102 103 103 101 98 97 95 94 92 90 87 82 74 69 64 62 56 49 41 33 27 19 11 6 1 356 350 344
60 63 66 66 60 71 87 97 100 102 104 104 104 106 106 106 104 102 99 97 97 97 92 86 85 81 76 70 63 58 53 48 43 34 25 17 8 1 358 355 352 346 342
68 74 55 62 72 87 98 101 104 107 106 106 106 105 105 103 101 100 100 97 95 94 89 86 82 78 72 65 58 51 46 40 34 26 15 8 2 355 351 346 342 337 336
81 82 79 84 92 99 100 102 105 106 107 105 104 104 103 101 101 99 93 94 94 88 85 82 77 74 70 62 53 45 40 34 25 17 9 1 354 348 345 341 342 338 336
86 88 93 96 100 101 105 106 106 105 103 102 101 100 100 101 100 98 98 92 86 85 81 76 75 70 66 57 49 41 34 26 20 11 2 355 352 351 350 342 343 341 340
107 108 107 107 106 106 108 109 108 107 103 104 104 106 105 103 99 95 91 89 88 85 81 73 64 60 55 48 38 31 25 19 12 6 358 356 354 348 345 341 340 336 334
119 116 115 111 108 112 115 111 109 103 104 105 106 105 101 97 92 90 86 83 82 80 74 68 64 55 46 37 29 22 16 14 3 360 356 351 348 345 340 336 336 335 328
129 129 125 120 119 117 115 109 106 106 109 109 107 103 103 102 96 92 90 84 73 64 66 60 50 45 38 27 21 17 12 3 3 354 349 349 344 340 336 332 335 336 335
140 135 131 128 127 125 122 119 112 113 110 111 108 105 97 95 97 92 78 67 63 55 48 43 38 32 24 17 15 10 4 0 353 350 347 341 337 335 335 339 338 334 332
154 145 138 134 129 127 124 115 114 115 118 115 108 102 100 95 85 73 67 58 50 41 34 29 22 17 10 5 1 358 354 349 346 346 341 338 338 339 337 336 335 335 336
161 156 154 148 140 133 129 124 122 118 119 110 105 104 101 93 84 78 69 50 37 29 23 16 9 2 357 355 351 347 346 346 343 340 338 340 342 343 343 340 337 337 334
172 169 165 159 152 147 144 137 129 125 119 109 99 89 75 61 48 35 25 18 16 13 6 358 353 353 348 342 340 341 341 340 337 338 338 342 343 344 344 341 338 338 334
Wind_Speed_850mb
56 46 32 36 30 33 36 36 31 21 26 31 31 20 20 32 21 32 41 62 86 76 56 49 48 48 42 49 52 52 46 51 39 36 33 33 34 39 43 45 46 44 45
60 48 42 29 26 30 32 33 30 26 28 34 36 26 20 24 26 29 39 45 51 54 53 39 35 34 43 45 48 47 51 53 46 46 40 34 33 35 36 36 40 49 51
67 58 44 36 21 29 31 32 28 31 29 31 38 30 24 22 30 28 48 33 50 50 43 44 44 35 42 44 45 45 49 50 55 43 38 16 19 22 19 22 31 38 42
74 51 39 37 28 27 29 28 34 31 22 32 39 35 24 28 37 37 33 30 53 49 35 31 32 30 31 37 38 39 44 44 42 44 51 46 52 47 34 33 32 38 44
56 24 30 30 28 31 23 27 33 34 27 30 36 36 24 23 23 32 19 38 59 51 47 34 32 24 31 30 34 40 32 36 35 38 41 41 41 49 52 42 37 34 34
74 60 32 28 22 18 14 29 30 22 23 34 38 43 29 22 34 38 48 54 55 57 43 48 44 36 36 38 35 30 33 36 39 41 45 41 36 30 19 14 23 24 25
82 80 62 52 18 6 11 14 12 13 21 32 37 39 39 29 30 40 48 51 53 45 50 55 46 41 41 40 39 35 37 36 37 28 24 18 11 3 10 13 15 11 16
90 84 59 50 38 18 11 14 18 33 47 55 53 51 43 41 44 38 45 44 41 39 44 55 53 45 48 52 46 40 35 26 21 11 20 18 21 15 14 13 14 7 12
85 79 61 48 38 30 28 30 38 49 63 65 61 62 59 57 55 46 37 39 53 58 51 40 44 49 38 39 41 42 46 41 39 37 31 27 25 21 21 22 22 24 14
80 76 56 51 41 43 41 45 59 68 80 80 77 74 73 72 66 60 63 61 66 73 67 57 52 56 58 53 50 53 49 46 49 44 38 41 40 34 30 28 27 26 25
68 61 56 46 42 43 49 55 62 81 94 94 92 90 91 90 84 83 81 80 79 81 80 76 71 68 65 62 60 56 53 51 52 49 44 43 37 35 33 32 31 32 33
57 67 54 45 46 58 52 54 69 97 97 95 95 94 96 98 103 100 93 85 84 80 78 78 74 71 68 67 65 63 59 55 53 49 42 43 39 38 39 39 40 40 40
55 64 55 51 57 60 53 51 91 106 107 101 102 103 101 99 103 98 94 89 89 88 86 85 82 78 73 67 64 59 56 53 50 47 47 47 46 46 47 46 47 48 48
59 65 56 59 61 50 45 65 104 103 103 102 102 104 102 99 96 92 93 95 90 85 80 79 79 74 70 64 58 55 53 51 50 49 49 49 50 51 53 56 59 62 63
62 63 63 60 52 47 61 99 105 105 104 105 106 106 100 97 94 91 89 88 86 81 77 74 73 68 65 60 54 51 51 51 51 49 49 51 53 54 58 60 61 62 66
54 52 61 46 46 49 80 101 102 101 98 100 102 97 92 91 89 87 85 83 81 75 71 70 64 63 63 54 51 49 49 48 48 52 55 57 57 59 61 62 63 60 62
48 50 40 40 43 63 84 95 95 91 92 93 91 88 84 84 80 78 75 76 69 64 66 62 58 61 56 48 47 47 49 51 54 55 57 58 61 63 65 64 63 64 62
43 39 42 47 59 72 81 83 83 83 84 87 85 80 77 77 73 69 69 64 59 60 57 56 56 53 51 47 46 48 48 51 55 58 60 61 61 62 64 66 66 66 64
33 35 44 53 62 71 74 77 77 77 77 79 75 72 67 65 61 60 57 55 54 53 50 51 46 45 48 45 44 44 49 50 54 57 58 60 62 67 65 72 72 67 65
31 36 44 53 62 64 64 68 72 70 73 69 65 60 58 57 56 54 51 47 44 45 43 44 45 43 43 40 47 50 49 56 58 59 57 63 70 67 65 71 69 68 65
39 42 45 52 54 54 55 61 62 64 61 58 55 52 50 48 47 46 43 40 36 35 37 37 33 39 43 46 46 51 53 62 57 64 68 64 66 67 63 61 58 52 59
42 44 46 49 48 45 43 52 55 53 48 45 43 42 40 40 39 34 33 31 33 36 29 28 34 37 40 41 45 55 57 56 67 64 64 67 66 63 57 54 55 57 60
35 35 38 42 44 43 42 47 50 44 40 37 37 35 33 32 29 25 29 30 28 24 29 29 31 33 35 40 44 47 54 59 59 64 62 59 56 56 55 54 55 54 54
34 35 35 35 37 36 37 39 40 36 30 29 30 29 25 24 23 25 25 23 23 25 27 27 28 30 34 39 45 51 54 54 55 53 52 53 52 51 52 51 48 50 54
38 37 36 36 36 35 33 33 32 27 21 22 24 24 21 20 20 17 16 17 20 23 27 31 32 33 35 40 44 48 52 56 57 55 55 57 56 54 51 48 49 51 55
41 40 37 33 34 34 31 30 27 23 18 17 18 16 15 16 17 18 19 21 25 29 31 30 32 33 36 39 41 46 49 52 55 56 58 54 51 51 53 54 54 53 59
Wind_Direction_850mb
327 319 309 276 270 283 268 264 267 280 283 258 239 233 284 290 263 238 255 199 214 218 204 209 212 210 220 224 222 229 224 234 231 235 236 242 236 246 257 267 273 275 274
320 306 309 312 291 281 273 267 259 263 267 260 233 229 275 291 235 227 227 232 190 200 212 200 200 221 230 229 226 231 229 235 231 226 241 256 268 274 282 281 279 272 271
311 300 292 293 275 275 272 268 265 260 265 258 233 223 247 278 238 225 229 218 219 207 197 216 206 206 228 238 240 232 236 234 244 251 243 249 248 271 286 275 262 263 261
321 273 272 274 259 272 272 257 258 275 251 248 224 218 223 216 226 224 232 226 231 203 198 200 199 205 232 234 242 249 243 241 248 249 251 254 258 271 282 269 254 262 257
348 305 268 272 268 265 269 286 280 275 231 226 216 209 223 190 206 227 219 222 207 220 210 201 192 209 226 235 239 235 237 237 242 242 253 250 249 260 266 271 254 255 267
358 14 347 314 296 275 309 277 276 270 242 214 198 193 196 183 212 216 208 206 210 210 200 201 199 197 220 218 219 224 230 234 240 245 252 256 258 250 245 269 273 293 287
7 12 21 38 56 99 223 246 233 201 184 187 192 177 165 172 190 197 199 199 196 204 207 211 203 210 223 233 228 228 227 231 224 245 235 229 232 268 277 265 288 300 297
7 15 23 42 52 54 77 153 154 151 133 140 143 136 139 155 167 157 157 160 164 166 167 173 185 211 223 214 219 202 218 216 215 137 110 93 85 62 65 47 9 332 332
7 15 28 42 60 84 93 120 137 127 124 131 124 124 125 128 130 134 134 132 122 116 121 132 128 119 120 113 115 106 107 112 105 100 93 86 78 79 62 46 35 33 6
13 22 33 45 70 85 94 114 115 114 115 117 116 114 115 113 113 116 113 112 114 113 111 106 107 110 108 110 107 104 102 99 90 84 78 67 62 58 55 47 35 24 12
13 30 38 54 74 90 96 97 97 112 111 114 115 116 115 115 119 116 118 119 116 110 106 108 108 102 98 97 94 89 82 78 79 79 73 70 61 52 43 32 22 10 359
28 39 51 70 73 89 96 81 88 106 103 107 110 105 105 106 106 107 108 109 103 100 101 101 98 92 87 87 87 88 85 80 75 70 64 61 52 42 32 22 12 4 355
42 52 59 64 74 79 81 78 97 101 103 105 105 105 103 101 101 101 100 100 99 97 96 96 94 91 88 85 81 79 76 71 65 59 51 43 33 26 17 9 2 356 349
43 54 58 64 71 72 70 83 101 102 105 106 104 103 102 101 101 101 101 101 102 101 99 96 92 86 81 77 74 70 67 63 57 49 42 33 24 17 8 3 359 352 347
49 53 53 69 64 62 78 97 100 102 103 103 104 102 103 102 103 103 101 98 97 95 94 92 90 87 82 74 69 64 62 56 49 41 33 27 19 11 6 1 356 350 344
60 63 66 66 60 71 87 97 100 102 104 104 104 106 106 106 104 102 99 97 97 97 92 86 85 81 76 70 63 58 53 48 43 34 25 17 8 1 358 355 352 346 342
68 74 55 62 72 87 98 101 104 107 106 106 106 105 105 103 101 100 100 97 95 94 89 86 82 78 72 65 58 51 46 40 34 26 15 8 2 355 351 346 342 337 336
81 82 79 84 92 99 100 102 105 106 107 105 104 104 103 101 101 99 93 94 94 88 85 82 77 74 70 62 53 45 40 34 25 17 9 1 354 348 345 341 342 338 336
86 88 93 96 100 101 105 106 106 105 103 102 101 100 100 101 100 98 98 92 86 85 81 76 75 70 66 57 49 41 34 26 20 11 2 355 352 351 350 342 343 341 340
107 108 107 107 106 106 108 109 108 107 103 104 104 106 105 103 99 95 91 89 88 85 81 73 64 60 55 48 38 31 25 19 12 6 358 356 354 348 345 341 340 336 334
119 116 115 111 108 112 115 111 109 103 104 105 106 105 101 97 92 90 86 83 82 80 74 68 64 55 46 37 29 22 16 14 3 360 356 351 348 345 340 336 336 335 328
129 129 125 120 119 117 115 109 106 106 109 109 107 103 103 102 96 92 90 84 73 64 66 60 50 45 38 27 21 17 12 3 3 354 349 349 344 340 336 332 335 336 335
140 135 131 128 127 125 122 119 112 113 110 111 108 105 97 95 97 92 78 67 63 55 48 43 38 32 24 17 15 10 4 0 353 350 347 341 337 335 335 339 338 334 332
154 145 138 134 129 127 124 115 114 115 118 115 108 102 100 95 85 73 67 58 50 41 34 29 22 17 10 5 1 358 354 349 346 346 341 338 338 339 337 336 335 335 336
161 156 154 148 140 133 129 124 122 118 119 110 105 104 101 93 84 78 69 50 37 29 23 16 9 2 357 355 351 347 346 346 343 340 338 340 342 343 343 340 337 337 334
172 169 165 159 152 147 144 137 129 125 119 109 99 89 75 61 48 35 25 18 16 13 6 358 353 353 348 342 340 341 341 340 337 338 338 342 343 344 344 341 338 338 334